{"data":{"norad_id":43930,"epoch":"2026-05-25T02:58:43.925664Z","epoch_age_seconds":64225,"freshness":"FRESH","line1":"1 43930U 19002J   26145.12411951  .00000641  00000+0  97740-4 0  9994","line2":"2 43930  86.6105   3.1894 0002379  90.0238 270.1252 14.72254020395862","mean_motion":14.7225402,"eccentricity":0.0002379,"inclination_deg":86.6105,"raan_deg":3.1894,"arg_perigee_deg":90.0238,"mean_anomaly_deg":270.1252,"bstar":9.774e-5,"rev_number":39586,"period_min":97.809208223456,"perigee_km":652.20864990177,"apogee_km":655.55448433601,"semimajor_km":7032.0185671189,"source":"CELESTRAK","updated_at":"2026-05-25T13:38:14.815698Z"}}